• In Uzbekistan
  • List of Countries
  • For 7 days
  • Water Temperature
  • Satellite Maps
  • Weather Map
  • Weather Widgets
  • user-avatar
    Login

    Hourly Weather Riga

    Today, 23 October, Monday

    Time Temperature Precipitation Wind Pressure Humidity
    00:00 -1°C° 0 mm 2 mps 763 mmHg 75%
    01:00 -1°C° 0 mm 3 mps 763 mmHg 75%
    02:00 -1°C° 0 mm 3 mps 763 mmHg 76%
    03:00 -1°C° 0 mm 3 mps 763 mmHg 75%
    04:00 -1°C° 0 mm 3 mps 763 mmHg 75%
    05:00 -1°C° 0 mm 3 mps 763 mmHg 75%
    06:00 -1°C° 0 mm 4 mps 763 mmHg 74%
    07:00 -1°C° 0 mm 4 mps 764 mmHg 74%
    08:00 -1°C° 0 mm 4 mps 764 mmHg 74%
    09:00 0°C° 0 mm 4 mps 764 mmHg 69%
    10:00 +1°C° 0 mm 4 mps 764 mmHg 65%
    11:00 +2°C° 0 mm 5 mps 765 mmHg 61%
    12:00 +2°C° 0 mm 5 mps 765 mmHg 59%
    13:00 +3°C° 0 mm 5 mps 765 mmHg 58%
    14:00 +4°C° 0 mm 4 mps 765 mmHg 56%
    15:00 +3°C° 0 mm 4 mps 766 mmHg 61%
    16:00 +1°C° 0 mm 4 mps 766 mmHg 65%
    17:00 0°C° 0 mm 4 mps 767 mmHg 70%
    18:00 0°C° 0 mm 4 mps 767 mmHg 71%
    19:00 -1°C° 0 mm 4 mps 767 mmHg 73%
    20:00 -1°C° 0 mm 4 mps 768 mmHg 75%
    21:00 -1°C° 0 mm 4 mps 768 mmHg 76%
    22:00 -2°C° 0 mm 4 mps 769 mmHg 77%
    23:00 -2°C° 0 mm 4 mps 769 mmHg 78%

    Tomorrow, 24 October, Tuesday

    Time Temperature Precipitation Wind Pressure Humidity
    00:00 -2°C° 0 mm 4 mps 770 mmHg 79%
    01:00 -2°C° 0 mm 4 mps 770 mmHg 80%
    02:00 -3°C° 0 mm 4 mps 770 mmHg 80%
    03:00 -2°C° 0 mm 3 mps 771 mmHg 81%
    04:00 -2°C° 0 mm 3 mps 771 mmHg 82%
    05:00 -2°C° 0 mm 3 mps 771 mmHg 82%
    06:00 -2°C° 0 mm 3 mps 771 mmHg 82%
    07:00 -2°C° 0 mm 3 mps 771 mmHg 81%
    08:00 -2°C° 0 mm 3 mps 772 mmHg 80%
    09:00 -2°C° 0 mm 4 mps 772 mmHg 73%
    10:00 0°C° 0 mm 4 mps 772 mmHg 66%
    11:00 +1°C° 0 mm 4 mps 772 mmHg 60%
    12:00 +3°C° 0 mm 4 mps 772 mmHg 57%
    13:00 +3°C° 0 mm 4 mps 772 mmHg 55%
    14:00 +4°C° 0 mm 4 mps 772 mmHg 53%
    15:00 +3°C° 0 mm 4 mps 772 mmHg 57%
    16:00 +2°C° 0 mm 3 mps 772 mmHg 62%
    17:00 +1°C° 0 mm 3 mps 772 mmHg 67%
    18:00 0°C° 0 mm 3 mps 772 mmHg 68%
    19:00 -1°C° 0 mm 4 mps 772 mmHg 69%
    20:00 -1°C° 0 mm 4 mps 772 mmHg 70%
    21:00 -2°C° 0 mm 4 mps 772 mmHg 70%
    22:00 -2°C° 0 mm 4 mps 772 mmHg 71%
    23:00 -2°C° 0 mm 5 mps 772 mmHg 72%

    Day after tomorrow, 25 October, Wednesday

    Time Temperature Precipitation Wind Pressure Humidity
    00:00 -2°C° 0 mm 4 mps 772 mmHg 73%
    01:00 -2°C° 0 mm 4 mps 772 mmHg 75%
    02:00 -3°C° 0 mm 4 mps 772 mmHg 77%
    03:00 -3°C° 0 mm 4 mps 772 mmHg 77%
    04:00 -4°C° 0 mm 5 mps 771 mmHg 78%
    05:00 -4°C° 0 mm 5 mps 771 mmHg 78%
    06:00 -2°C° 0 mm 5 mps 771 mmHg 77%
    07:00 -3°C° 0 mm 6 mps 770 mmHg 76%
    08:00 -3°C° 0 mm 6 mps 770 mmHg 75%
    09:00 -2°C° 0 mm 6 mps 769 mmHg 70%
    10:00 -1°C° 0 mm 7 mps 769 mmHg 65%
    11:00 +2°C° 0 mm 7 mps 768 mmHg 61%
    12:00 +1°C° 0 mm 8 mps 768 mmHg 59%
    13:00 +2°C° 0 mm 8 mps 767 mmHg 58%
    14:00 +2°C° 0 mm 8 mps 766 mmHg 56%
    15:00 +2°C° 0.3 mm 9 mps 765 mmHg 60%
    16:00 +2°C° 0.3 mm 9 mps 764 mmHg 63%
    17:00 +1°C° 0.3 mm 10 mps 763 mmHg 67%
    18:00 +1°C° 1.8 mm 10 mps 762 mmHg 72%
    19:00 +1°C° 1.8 mm 10 mps 761 mmHg 77%
    20:00 +1°C° 1.8 mm 10 mps 760 mmHg 83%
    21:00 +1°C° 0.6 mm 9 mps 759 mmHg 85%
    22:00 +1°C° 0.6 mm 9 mps 759 mmHg 87%
    23:00 +2°C° 0.6 mm 8 mps 758 mmHg 89%

    26 October, Thursday

    Time Temperature Precipitation Wind Pressure Humidity
    00:00 +3°C° 0.1 mm 7 mps 758 mmHg 91%
    01:00 +3°C° 0.1 mm 6 mps 758 mmHg 93%
    02:00 +5°C° 0.1 mm 5 mps 758 mmHg 95%
    03:00 +5°C° 0 mm 5 mps 758 mmHg 95%
    04:00 +6°C° 0 mm 4 mps 758 mmHg 95%
    05:00 +6°C° 0 mm 4 mps 757 mmHg 95%
    06:00 +6°C° 0 mm 4 mps 757 mmHg 95%
    07:00 +7°C° 0 mm 4 mps 757 mmHg 95%
    08:00 +7°C° 0 mm 4 mps 757 mmHg 94%
    09:00 +8°C° 0.1 mm 4 mps 757 mmHg 91%
    10:00 +8°C° 0.1 mm 5 mps 757 mmHg 89%
    11:00 +9°C° 0.1 mm 5 mps 756 mmHg 86%
    12:00 +9°C° 0.1 mm 5 mps 756 mmHg 84%
    13:00 +10°C° 0.1 mm 5 mps 756 mmHg 83%
    14:00 +10°C° 0.1 mm 5 mps 755 mmHg 81%
    15:00 +9°C° 0.1 mm 5 mps 755 mmHg 84%
    16:00 +10°C° 0.1 mm 4 mps 755 mmHg 86%
    17:00 +8°C° 0.1 mm 4 mps 755 mmHg 89%
    18:00 +8°C° 0.1 mm 4 mps 755 mmHg 90%
    19:00 +8°C° 0.1 mm 4 mps 754 mmHg 90%
    20:00 +7°C° 0.1 mm 4 mps 754 mmHg 91%
    21:00 +7°C° 0 mm 4 mps 754 mmHg 92%
    22:00 +7°C° 0 mm 4 mps 754 mmHg 92%
    23:00 +7°C° 0 mm 4 mps 754 mmHg 92%

    27 October, Friday

    Time Temperature Precipitation Wind Pressure Humidity
    00:00 +7°C° 0 mm 4 mps 753 mmHg 93%
    01:00 +6°C° 0 mm 4 mps 753 mmHg 93%
    02:00 +6°C° 0 mm 4 mps 753 mmHg 94%
    03:00 +7°C° 0 mm 3 mps 753 mmHg 95%
    04:00 +7°C° 0 mm 3 mps 752 mmHg 95%
    05:00 +5°C° 0 mm 3 mps 751 mmHg 96%
    06:00 +5°C° 0 mm 3 mps 751 mmHg 96%
    07:00 +5°C° 0 mm 3 mps 751 mmHg 96%
    08:00 +5°C° 0 mm 3 mps 750 mmHg 97%
    09:00 +7°C° 0 mm 3 mps 750 mmHg 94%
    10:00 +8°C° 0 mm 3 mps 750 mmHg 92%
    11:00 +9°C° 0 mm 3 mps 749 mmHg 89%
    12:00 +9°C° 0.2 mm 3 mps 749 mmHg 87%
    13:00 +9°C° 0.2 mm 3 mps 749 mmHg 86%
    14:00 +10°C° 0.2 mm 2 mps 748 mmHg 84%
    15:00 +9°C° 0.3 mm 2 mps 748 mmHg 87%
    16:00 +8°C° 0.3 mm 2 mps 747 mmHg 90%
    17:00 +8°C° 0.3 mm 2 mps 747 mmHg 93%
    18:00 +7°C° 0.4 mm 2 mps 747 mmHg 93%
    19:00 +7°C° 0.4 mm 3 mps 747 mmHg 94%
    20:00 +7°C° 0.4 mm 3 mps 747 mmHg 95%
    21:00 +7°C° 0.2 mm 3 mps 746 mmHg 94%
    22:00 +7°C° 0.2 mm 3 mps 746 mmHg 93%
    23:00 +7°C° 0.2 mm 3 mps 746 mmHg 92%

    28 October, Saturday

    Time Temperature Precipitation Wind Pressure Humidity
    00:00 +7°C° 0 mm 3 mps 746 mmHg 91%
    01:00 +7°C° 0 mm 3 mps 745 mmHg 90%
    02:00 +7°C° 0 mm 3 mps 745 mmHg 88%
    03:00 +7°C° 0.1 mm 3 mps 745 mmHg 89%
    04:00 +7°C° 0.1 mm 3 mps 745 mmHg 90%
    05:00 +5°C° 0.1 mm 3 mps 745 mmHg 90%
    06:00 +5°C° 0.1 mm 3 mps 745 mmHg 91%
    07:00 +5°C° 0.1 mm 3 mps 745 mmHg 92%
    08:00 +6°C° 0.1 mm 2 mps 745 mmHg 93%
    09:00 +7°C° 0 mm 2 mps 745 mmHg 89%
    10:00 +7°C° 0 mm 2 mps 745 mmHg 86%
    11:00 +8°C° 0 mm 2 mps 746 mmHg 82%
    12:00 +8°C° 0.1 mm 2 mps 746 mmHg 80%
    13:00 +10°C° 0.1 mm 1 mps 746 mmHg 77%
    14:00 +10°C° 0.1 mm 1 mps 746 mmHg 75%
    15:00 +9°C° 0.1 mm 1 mps 747 mmHg 79%
    16:00 +8°C° 0.1 mm 1 mps 747 mmHg 83%
    17:00 +6°C° 0.1 mm 2 mps 747 mmHg 87%
    18:00 +7°C° 0 mm 1 mps 748 mmHg 88%
    19:00 +6°C° 0 mm 1 mps 749 mmHg 89%
    20:00 +6°C° 0 mm 1 mps 749 mmHg 90%
    21:00 +6°C° 0 mm 1 mps 750 mmHg 90%
    22:00 +6°C° 0 mm 1 mps 750 mmHg 91%
    23:00 +5°C° 0 mm 1 mps 751 mmHg 91%

    29 October, Sunday

    Time Temperature Precipitation Wind Pressure Humidity
    00:00 +5°C° 0 mm 1 mps 751 mmHg 91%
    01:00 +5°C° 0 mm 1 mps 751 mmHg 92%
    02:00 +4°C° 0 mm 2 mps 751 mmHg 92%
    03:00 +4°C° 0 mm 2 mps 751 mmHg 92%
    04:00 +3°C° 0 mm 2 mps 751 mmHg 92%
    05:00 +3°C° 0 mm 2 mps 751 mmHg 92%
    06:00 +3°C° 0 mm 2 mps 751 mmHg 92%
    07:00 +3°C° 0 mm 2 mps 751 mmHg 93%
    08:00 +2°C° 0 mm 3 mps 751 mmHg 93%
    09:00 +3°C° 0 mm 3 mps 751 mmHg 89%
    10:00 +5°C° 0 mm 3 mps 751 mmHg 86%
    11:00 +6°C° 0 mm 4 mps 751 mmHg 82%
    12:00 +6°C° 0 mm 4 mps 750 mmHg 81%
    13:00 +7°C° 0 mm 5 mps 749 mmHg 80%
    14:00 +7°C° 0 mm 5 mps 749 mmHg 78%
    15:00 +7°C° 0.1 mm 5 mps 748 mmHg 80%
    16:00 +7°C° 0.1 mm 5 mps 747 mmHg 82%
    17:00 +7°C° 0.1 mm 5 mps 746 mmHg 85%
    18:00 +5°C° 0.4 mm 6 mps 745 mmHg 85%
    19:00 +5°C° 0.4 mm 7 mps 744 mmHg 86%
    20:00 +5°C° 0.4 mm 7 mps 743 mmHg 86%
    21:00 +6°C° 0.4 mm 7 mps 742 mmHg 86%
    22:00 +6°C° 0.4 mm 7 mps 741 mmHg 86%
    23:00 +6°C° 0.4 mm 7 mps 740 mmHg 86%
    Show more